Regional Weather Roundup
Issued by NWS

Home | Current Version | Previous Version | Graphics & Text | Print | Product List | Glossary Off
Versions: 1 2 3 4 5 6 7 8 9 10 11 12 13 14 15 16 17 18 19 20 21 22 23 24 25 26 27 28 29 30 31 32 33 34 35 36 37 38 39 40 41 42 43 44 45 46 47 48 49 50

000
ASUS45 KBOU 011710
RWRCO

WEATHER ROUNDUP FOR COLORADO
NATIONAL WEATHER SERVICE DENVER/BOULDER CO
1100 AM MDT WED JUL 01 2015

NOTE: "FAIR" INDICATES FEW OR NO CLOUDS BELOW 12000 FEET WITH NO
SIGNIFICANT WEATHER AND/OR OBSTRUCTIONS TO VISIBILITY.

COZ001>005-013-030-031-011800-
...NORTHWEST COLORADO...

CITY           SKY/WX    TMP DP  RH WIND       PRES   REMARKS
CRAIG          CLOUDY    73  51  46 NW6       30.25R
HAYDEN         CLOUDY    73  46  38 CALM      30.26S
MEEKER         PTSUNNY   72  49  44 SW5       30.26R
MOUNT WERNER   NOT AVBL
STEAMBOAT SPGS CLOUDY    75  49  39 W3        30.27F
WALDEN         SUNNY     70  48  46 SE3       30.37F
$$

COZ006>008-011-011800-
...WEST CENTRAL VALLEYS...

CITY           SKY/WX    TMP DP  RH WIND       PRES   REMARKS
GRAND JUNCTION PTSUNNY   84  46  26 SE9       30.10F
MONTROSE       PTSUNNY   85  51  31 W6        30.18F
EAGLE          MOSUNNY   73  46  38 CALM      30.28F
RIFLE          MOSUNNY   84  48  28 VRB5      30.16F
DELTA          PTSUNNY   85  44  23 CALM      30.15S
NUCLA          PTSUNNY   82  46  28 N5        30.22F
$$

COZ017>023-064>068-011800-
...SOUTHWEST COLORADO...

CITY           SKY/WX    TMP DP  RH WIND       PRES   REMARKS
DURANGO        PTSUNNY   80  46  30 VRB3      30.24F
CORTEZ         SUNNY     84  45  25 CALM      30.18F
PAGOSA SPRINGS PTSUNNY   75  41  29 CALM      30.34F
TELLURIDE      PTSUNNY   76  41  28 W10       30.45S
WOLF CREEK PAS NOT AVBL
$$

COZ009-010-012-014-032>034-037-058>063-011800-
...CENTRAL COLORADO...

CITY           SKY/WX    TMP DP  RH WIND       PRES   REMARKS
ASPEN          MOSUNNY   78  50  37 N6        30.32F
BUENA VISTA    MOSUNNY   75  46  36 SE8       30.34F
COPPER MTN     SUNNY     63  34  34 W8G18     30.69S
BERTHOUD PASS  PTSUNNY   54  43  66 MISG      30.74S
COTTONWOOD PAS NOT AVBL
GUNNISON       PTSUNNY   72  46  40 W3        30.37F
KREMMLING      SUNNY     73  43  33 CALM      30.33F
LEADVILLE      SUNNY     70  39  32 N8G16     30.49S
MONARCH PASS   PTSUNNY   57  41  54 SW6       30.79R
SALIDA         MOSUNNY   74  50  43 CALM      30.38F
SUNLIGHT       MOSUNNY   68  39  34 NE3       30.61S
WILKERSON PASS SUNNY     63  41  45 SE7       30.65R
$$

COZ069>075-011800-
...SAN LUIS VALLEY/SANGRE DE CRISTO MOUNTAINS...

CITY           SKY/WX    TMP DP  RH WIND       PRES   REMARKS
ALAMOSA        PTSUNNY   73  49  42 CALM      30.32F
LA VETA PASS   PTSUNNY   64  43  45 MISG      30.54R
SAGUACHE       MOSUNNY   73  48  40 CALM      30.36F
$$

COZ035-036-038>040-011800-
...NORTHERN COLORADO FRONT RANGE...

CITY           SKY/WX    TMP DP  RH WIND       PRES   REMARKS
DENVER INTL AP MOSUNNY   85  52  32 N7        30.17R
DMNS CITY PARK   N/A     83  51  32 N5G10     30.17S
AURORA         MOSUNNY   82  55  38 NE7       30.20S
FRONT RANGE AP MOSUNNY   82  54  36 CALM      30.18S
ERIE MUNI ARPT SUNNY     84  49  29 N7        30.15S
BOULDER MUN AP SUNNY     82  52  34 E5        30.16S
CENTENNIAL     MOSUNNY   79  55  43 CALM      30.21S
BROOMFIELD     MOSUNNY   82  50  32 VRB5      30.20R
FORT COLLINS   SUNNY     84  57  39 E6        30.14S
LONGMONT       SUNNY     88  51  27 NE5       30.16S
$$

COZ041-046-047-076>085-087-088-011800-
...PIKES PEAK/PALMER DIVIDE AND SOUTHERN FOOTHILLS...

CITY           SKY/WX    TMP DP  RH WIND       PRES   REMARKS
COLO. SPRINGS  MOSUNNY   83  51  33 N12       30.22S
A. F. ACADEMY  SUNNY     80  46  30 N13       30.24R
ELLICOTT       SUNNY    N/A N/A N/A NE13      30.22R
FALCON         SUNNY     80  47  32 N13       30.29R
FORT CARSON    SUNNY     82  54  37 NE12      30.19S
LIMON          MOSUNNY   82  54  37 NE8       30.16S
MONUMENT HILL  SUNNY     75  50  41 N7        30.31R
TRINIDAD       MOSUNNY   85  50  29 E12       30.18R
$$

COZ042>045-048>051-090-091-011800-
...NORTHEAST COLORADO...

CITY           SKY/WX    TMP DP  RH WIND       PRES   REMARKS
GREELEY ARPT   SUNNY     84  55  37 NE6       30.12S
AKRON          SUNNY     83  57  41 N9        30.10S
BURLINGTON     SUNNY     88  55  32 NE15      30.05S
WRAY           SUNNY     92  55  28 CALM      30.01S
STERLING       SUNNY     90  59  35 NW8         N/A
HOLYOKE        SUNNY     95  50  21 N12G21    30.01R
FORT MORGAN    SUNNY     85  54  34 NE6       30.10F
$$

COZ086-089-092>099-011800-
...SOUTHEAST COLORADO...

CITY           SKY/WX    TMP DP  RH WIND       PRES   REMARKS
PUEBLO         SUNNY     89  52  28 E9        30.10S
LA JUNTA       MOSUNNY   91  54  28 NE10      30.06S
LAMAR          MOSUNNY   89  58  34 N9        30.00S
SPRINGFIELD      N/A     91  50  24 N14G23    30.05F
$$


USA.gov is the U.S. government's official web portal to all federal, state and local government web resources and services.